Simultaneous Nadir Overpasses (SNOs) Predictions

Prediction of SNOs between NOAA-20 and NOAA-19 Satellite Orbit:

Table of predicted SNOs for the next 14.0 days since TLE Epoch: 5/20/2023
Index Date (NOAA-20) Time (NOAA-20) Lat,Lon (NOAA-20) SZA (NOAA-20 ) Date (NOAA-19) Time (NOAA-19) Lat,Lon (NOAA-19) SZA (NOAA-19 ) Distance(km) Time Diff (sec)
1 05/20/2023 03:43:46 75.37, 109.60 55.84 05/20/2023 03:44:21 75.36, 109.59 55.82 1.20 35
2 05/20/2023 04:34:30 -75.38, -83.10 124.16 05/20/2023 04:35:24 -75.40, -83.04 124.16 3.33 54
3 05/20/2023 05:25:16 75.38, 84.21 55.83 05/20/2023 05:26:20 75.37, 84.12 55.81 2.80 64
4 05/20/2023 06:16:08 -75.75,-109.66 123.73 05/20/2023 06:17:17 -75.68,-107.60 123.96 57.12 69



Historial Predications of SNOs between NOAA-20 and NOAA-19
